Location: Unspecified
(42.9300°N, 71.1866°W)
Time: 10:46:01
(UTC-04:00)

Okean 3 - Visible Passes

Search period start: 28 August 2015 00:00
Search period end: 07 September 2015 00:00
Orbit: 581 x 604 km, 82.5° (Epoch: 27 August)

Date Brightness Start Highest point End Pass type
(mag) Time Alt. Az. Time Alt. Az. Time Alt. Az.
28 Aug 5.9 04:47:44 10° SE 04:51:07 24° E 04:54:36 10° NE visible
29 Aug 5.2 04:56:07 10° SSE 05:00:01 36° E 05:03:59 10° NNE visible
30 Aug 4.3 05:04:46 10° S 05:08:56 55° E 05:13:10 10° NNE visible
31 Aug 3.5 05:13:37 10° S 05:17:54 86° ESE 05:22:15 10° N visible
01 Sep 6.6 03:48:47 10° ESE 03:50:05 11° E 03:51:36 10° ENE visible
01 Sep 3.5 05:22:40 10° SSW 05:26:55 62° W 05:31:13 10° N visible
02 Sep 6.2 03:56:10 10° SE 03:58:55 17° E 04:01:50 10° NE visible
02 Sep 4.0 05:31:54 10° SSW 05:35:58 40° WNW 05:40:03 10° N visible
03 Sep 5.6 04:04:16 10° SE 04:07:47 26° E 04:11:24 10° NNE visible
03 Sep 4.5 05:41:22 10° SW 05:45:04 27° WNW 05:48:45 10° NNW visible
04 Sep 4.8 04:12:43 10° SSE 04:16:41 38° E 04:20:43 10° NNE visible
05 Sep 4.0 04:22:22 17° S 04:25:37 60° E 04:29:54 10° NNE visible
06 Sep 3.4 04:32:02 24° S 04:34:34 88° W 04:38:56 10° N visible
